| time (UTC) | temp F | wind direction | speed knots | gust knots | rain 1hr in | rain 24hr in | rain mn in | humidity % | barometer mb |
| 20260904062529 | 68 | 0.0 | 0.0 | 0.00 | 0.28 | 0.00 | 91 | 1011.8 | |
| 20260904061526 | 68 | 202 | 0.0 | 1.7 | 0.00 | 0.28 | 0.00 | 91 | 1011.6 |
| 20260904060543 | 68 | 0.0 | 0.0 | 0.00 | 0.28 | 0.00 | 91 | 1011.6 | |
| 20260904055520 | 68 | 0.0 | 0.0 | 0.00 | 0.28 | 0.00 | 91 | 1011.7 | |
| 20260904054517 | 68 | 0.0 | 0.0 | 0.00 | 0.28 | 0.00 | 91 | 1011.9 | |
| 20260904053534 | 68 | 201 | 0.0 | 0.9 | 0.00 | 0.28 | 0.00 | 91 | 1012.0 |
| 20260904052551 | 68 | 0.0 | 0.0 | 0.00 | 0.28 | 0.00 | 91 | 1012.0 | |
| 20260904051528 | 68 | 0.0 | 0.0 | 0.00 | 0.32 | 0.00 | 91 | 1012.0 | |
| 20260904050544 | 68 | 0.0 | 0.0 | 0.00 | 0.33 | 0.00 | 91 | 1012.1 | |
| 20260904045521 | 68 | 0.0 | 0.0 | 0.00 | 0.33 | 0.00 | 91 | 1012.2 | |
| 20260904044538 | 68 | 0.0 | 0.0 | 0.00 | 0.33 | 0.00 | 91 | 1012.1 | |
| 20260904043515 | 68 | 0.0 | 0.0 | 0.00 | 0.33 | 0.00 | 91 | 1011.8 | |
| 20260904042532 | 69 | 0.0 | 0.0 | 0.00 | 0.33 | 0.00 | 91 | 1011.9 | |
| 20260904041549 | 69 | 254 | 0.0 | 0.9 | 0.00 | 0.33 | 0.00 | 91 | 1011.9 |
| 20260904040526 | 69 | 254 | 0.0 | 1.7 | 0.00 | 0.33 | 0.00 | 91 | 1011.8 |
| 20260904035525 | 69 | 0.0 | 0.0 | 0.00 | 0.33 | 0.34 | 91 | 1011.5 | |
| 20260904034520 | 69 | 0.0 | 0.0 | 0.00 | 0.33 | 0.34 | 91 | 1011.3 | |
| 20260904033517 | 69 | 0.0 | 0.0 | 0.00 | 0.37 | 0.34 | 91 | 1011.3 | |
| 20260904032535 | 69 | 0.0 | 0.0 | 0.00 | 0.41 | 0.34 | 91 | 1011.2 | |
| 20260904031530 | 69 | 254 | 0.0 | 1.7 | 0.00 | 0.50 | 0.34 | 91 | 1011.4 |
| 20260904030527 | 69 | 0.0 | 0.0 | 0.00 | 0.50 | 0.34 | 91 | 1011.1 | |
| 20260904025524 | 69 | 0.0 | 0.0 | 0.00 | 0.50 | 0.34 | 91 | 1011.2 | |
| 20260904024523 | 70 | 0.0 | 0.0 | 0.00 | 0.50 | 0.34 | 91 | 1011.1 | |
| 20260904023518 | 70 | 0.0 | 0.0 | 0.00 | 0.50 | 0.34 | 90 | 1011.2 | |
| 20260904022535 | 70 | 0.0 | 0.0 | 0.00 | 0.50 | 0.34 | 90 | 1011.2 | |
| 20260904021552 | 70 | 254 | 0.0 | 1.7 | 0.00 | 0.50 | 0.34 | 91 | 1011.1 |
| 20260904020529 | 70 | 0.0 | 0.0 | 0.00 | 0.50 | 0.34 | 91 | 1011.1 | |
| 20260904015526 | 70 | 254 | 0.0 | 0.9 | 0.00 | 0.50 | 0.34 | 91 | 1011.3 |
| 20260904014523 | 70 | 254 | 0.9 | 2.6 | 0.00 | 0.50 | 0.34 | 91 | 1011.2 |
| 20260904013539 | 70 | 251 | 0.0 | 0.9 | 0.00 | 0.50 | 0.34 | 90 | 1011.0 |
| 20260904012536 | 70 | 251 | 0.0 | 0.9 | 0.00 | 0.50 | 0.34 | 90 | 1010.9 |
| 20260904011533 | 70 | 0.0 | 0.0 | 0.00 | 0.50 | 0.34 | 90 | 1011.0 | |
| 20260904010530 | 70 | 248 | 0.0 | 1.7 | 0.00 | 0.50 | 0.34 | 90 | 1010.8 |
| 20260904005527 | 70 | 243 | 0.9 | 1.7 | 0.00 | 0.50 | 0.34 | 90 | 1010.6 |
| 20260904004524 | 70 | 245 | 0.9 | 1.7 | 0.00 | 0.50 | 0.34 | 90 | 1010.6 |
| 20260904003541 | 70 | 256 | 0.9 | 1.7 | 0.00 | 0.50 | 0.34 | 90 | 1010.7 |
| 20260904002517 | 71 | 254 | 0.9 | 2.6 | 0.00 | 0.50 | 0.34 | 90 | 1010.3 |
| 20260904001535 | 71 | 315 | 1.7 | 2.6 | 0.00 | 0.50 | 0.34 | 90 | 1010.0 |
| 20260904000532 | 71 | 341 | 1.7 | 3.5 | 0.00 | 0.50 | 0.34 | 90 | 1010.0 |
| 20260903235528 | 71 | 113 | 3.5 | 7.0 | 0.00 | 0.50 | 0.34 | 90 | 1009.3 |
| 20260903234525 | 71 | 133 | 4.3 | 8.7 | 0.00 | 0.50 | 0.34 | 90 | 1009.6 |
| 20260903233522 | 71 | 73 | 1.7 | 5.2 | 0.00 | 0.50 | 0.34 | 90 | 1009.5 |
| 20260903232519 | 71 | 25 | 1.7 | 2.6 | 0.00 | 0.50 | 0.34 | 89 | 1009.8 |
| 20260903231517 | 71 | 48 | 2.6 | 5.2 | 0.00 | 0.50 | 0.34 | 89 | 1009.7 |
| 20260903230532 | 71 | 55 | 1.7 | 5.2 | 0.00 | 0.50 | 0.34 | 89 | 1009.3 |
| 20260903225529 | 71 | 59 | 1.7 | 2.6 | 0.00 | 0.50 | 0.34 | 89 | 1010.0 |
| 20260903224526 | 71 | 57 | 1.7 | 2.6 | 0.00 | 0.50 | 0.34 | 89 | 1010.2 |
| 20260903223543 | 71 | 353 | 0.9 | 2.6 | 0.00 | 0.50 | 0.34 | 89 | 1010.5 |
| 20260903222519 | 71 | 39 | 0.9 | 2.6 | 0.00 | 0.50 | 0.34 | 89 | 1010.6 |
| 20260903221516 | 71 | 353 | 0.0 | 0.9 | 0.00 | 0.50 | 0.34 | 89 | 1010.8 |
| 20260903220555 | 70 | 354 | 0.9 | 1.7 | 0.00 | 0.50 | 0.34 | 89 | 1011.1 |
| 20260903215550 | 70 | 297 | 1.7 | 3.5 | 0.00 | 0.50 | 0.34 | 88 | 1011.4 |
| 20260903214527 | 70 | 341 | 1.7 | 5.2 | 0.02 | 0.50 | 0.34 | 88 | 1011.1 |
| 20260903213524 | 70 | 355 | 0.9 | 1.7 | 0.04 | 0.50 | 0.34 | 88 | 1010.7 |
| 20260903212542 | 70 | 345 | 0.9 | 1.7 | 0.05 | 0.50 | 0.34 | 88 | 1011.0 |
| 20260903211537 | 70 | 0 | 0.0 | 1.7 | 0.13 | 0.50 | 0.34 | 88 | 1010.9 |
| 20260903210536 | 70 | 347 | 0.9 | 2.6 | 0.13 | 0.50 | 0.34 | 87 | 1011.2 |
| 20260903205531 | 70 | 312 | 2.6 | 7.0 | 0.13 | 0.49 | 0.33 | 87 | 1011.0 |
| 20260903204526 | 70 | 10 | 2.6 | 6.1 | 0.11 | 0.47 | 0.31 | 86 | 1010.3 |
| 20260903201530 | 73 | 323 | 4.3 | 11.3 | 0.00 | 0.37 | 0.20 | 83 | 1010.7 |
| 20260903200525 | 73 | 2 | 2.6 | 6.1 | 0.00 | 0.37 | 0.20 | 83 | 1011.0 |
| 20260903195524 | 73 | 30 | 0.9 | 3.5 | 0.00 | 0.37 | 0.20 | 83 | 1009.1 |
| 20260903194523 | 74 | 4 | 1.7 | 2.6 | 0.00 | 0.37 | 0.20 | 83 | 1009.8 |
| 20260903193518 | 74 | 47 | 0.0 | 0.9 | 0.00 | 0.37 | 0.20 | 83 | 1009.3 |
| 20260903192535 | 74 | 48 | 0.9 | 2.6 | 0.00 | 0.37 | 0.20 | 83 | 1009.3 |
| 20260903191612 | 74 | 48 | 0.9 | 1.7 | 0.00 | 0.37 | 0.20 | 82 | 1009.7 |
| 20260903190528 | 74 | 46 | 0.9 | 1.7 | 0.00 | 0.37 | 0.20 | 82 | 1009.8 |
| 20260903185526 | 74 | 47 | 1.7 | 2.6 | 0.00 | 0.37 | 0.20 | 82 | 1009.8 |
| 20260903185018 | 74 | 33 | 0.9 | 2.6 | 0.00 | 0.37 | 0.20 | 82 | 1009.9 |
| 20260903184034 | 75 | 30 | 0.9 | 1.7 | 0.00 | 0.37 | 0.20 | 82 | 1010.1 |
| 20260903183030 | 75 | 47 | 1.7 | 2.6 | 0.00 | 0.37 | 0.20 | 83 | 1010.1 |
| 20260903182029 | 75 | 46 | 1.7 | 3.5 | 0.00 | 0.37 | 0.20 | 84 | 1009.8 |
| 20260903181044 | 74 | 41 | 0.9 | 2.6 | 0.01 | 0.37 | 0.20 | 84 | 1009.5 |
| 20260903180041 | 73 | 32 | 0.9 | 5.2 | 0.02 | 0.37 | 0.20 | 85 | 1009.6 |
| 20260903175018 | 73 | 19 | 1.7 | 5.2 | 0.02 | 0.37 | 0.20 | 85 | 1009.8 |
| 20260903174035 | 72 | 17 | 0.9 | 3.5 | 0.02 | 0.37 | 0.20 | 85 | 1009.5 |
| 20260903173032 | 72 | 6 | 1.7 | 3.5 | 0.03 | 0.37 | 0.20 | 85 | 1009.5 |
| 20260903172029 | 71 | 114 | 3.5 | 7.8 | 0.04 | 0.37 | 0.20 | 84 | 1009.2 |
| 20260903171025 | 71 | 93 | 0.9 | 2.6 | 0.06 | 0.35 | 0.19 | 84 | 1010.1 |
| 20260903170022 | 71 | 120 | 1.7 | 2.6 | 0.09 | 0.35 | 0.18 | 83 | 1010.5 |
| 20260903165019 | 71 | 179 | 2.6 | 8.7 | 0.09 | 0.35 | 0.18 | 83 | 1010.3 |
| 20260903164016 | 71 | 355 | 0.9 | 1.7 | 0.09 | 0.35 | 0.18 | 83 | 1010.6 |
| 20260903163033 | 71 | 349 | 0.0 | 2.6 | 0.08 | 0.33 | 0.17 | 82 | 1010.8 |
| 20260903162030 | 71 | 324 | 3.5 | 7.0 | 0.08 | 0.33 | 0.16 | 81 | 1011.0 |
| 20260903161028 | 74 | 298 | 7.0 | 18.2 | 0.05 | 0.30 | 0.13 | 80 | 1012.2 |
| 20260903160044 | 76 | 284 | 9.6 | 28.7 | 0.01 | 0.26 | 0.09 | 82 | 1012.8 |
| 20260903155020 | 76 | 118 | 0.0 | 0.9 | 0.00 | 0.25 | 0.08 | 81 | 1011.4 |
| 20260903154037 | 76 | 117 | 0.0 | 0.9 | 0.00 | 0.25 | 0.08 | 80 | 1011.2 |
| 20260903153034 | 77 | 116 | 0.0 | 0.9 | 0.00 | 0.25 | 0.08 | 80 | 1011.0 |
| 20260903152031 | 77 | 116 | 0.0 | 0.9 | 0.00 | 0.25 | 0.08 | 79 | 1010.8 |
| 20260903151028 | 78 | 113 | 2.6 | 3.5 | 0.00 | 0.25 | 0.08 | 79 | 1010.4 |
| 20260903150024 | 79 | 114 | 2.6 | 6.1 | 0.00 | 0.25 | 0.08 | 79 | 1010.1 |
| 20260903145021 | 80 | 115 | 2.6 | 3.5 | 0.00 | 0.25 | 0.08 | 80 | 1010.2 |
| 20260903144040 | 79 | 116 | 2.6 | 3.5 | 0.00 | 0.25 | 0.08 | 80 | 1010.4 |
| 20260903143035 | 79 | 115 | 2.6 | 5.2 | 0.00 | 0.25 | 0.08 | 81 | 1010.4 |
| 20260903142032 | 79 | 115 | 2.6 | 5.2 | 0.00 | 0.25 | 0.08 | 81 | 1010.2 |
| 20260903141029 | 78 | 114 | 1.7 | 2.6 | 0.00 | 0.25 | 0.08 | 82 | 1010.0 |
| 20260903140026 | 77 | 112 | 0.9 | 3.5 | 0.00 | 0.25 | 0.08 | 82 | 1010.3 |
| 20260903135023 | 77 | 112 | 0.9 | 2.6 | 0.00 | 0.25 | 0.08 | 83 | 1010.4 |
| 20260903134019 | 77 | 113 | 1.7 | 2.6 | 0.00 | 0.25 | 0.08 | 84 | 1010.4 |
| 20260903133016 | 76 | 201 | 1.7 | 2.6 | 0.00 | 0.25 | 0.08 | 84 | 1010.4 |
| 20260903132033 | 76 | 260 | 0.0 | 1.7 | 0.00 | 0.25 | 0.08 | 85 | 1010.5 |
| 20260903131030 | 75 | 258 | 0.0 | 0.9 | 0.00 | 0.25 | 0.08 | 85 | 1010.5 |
| 20260903130048 | 74 | 258 | 0.0 | 0.9 | 0.00 | 0.25 | 0.08 | 85 | 1010.6 |
| 20260903125023 | 74 | 258 | 0.9 | 0.9 | 0.00 | 0.25 | 0.08 | 85 | 1010.8 |
| 20260903124040 | 74 | 258 | 0.9 | 1.7 | 0.00 | 0.25 | 0.08 | 85 | 1010.8 |
| 20260903123017 | 73 | 259 | 1.7 | 3.5 | 0.00 | 0.25 | 0.08 | 85 | 1010.8 |
| 20260903121031 | 72 | 257 | 1.7 | 3.5 | 0.00 | 0.25 | 0.08 | 85 | 1010.6 |
| 20260903120028 | 72 | 250 | 2.6 | 3.5 | 0.00 | 0.25 | 0.08 | 84 | 1010.6 |
| 20260903115025 | 72 | 257 | 0.9 | 1.7 | 0.00 | 0.25 | 0.08 | 84 | 1010.5 |
| 20260903114021 | 72 | 257 | 1.7 | 2.6 | 0.00 | 0.25 | 0.08 | 84 | 1010.5 |
| 20260903113038 | 72 | 255 | 0.9 | 2.6 | 0.00 | 0.25 | 0.08 | 84 | 1010.6 |
| 20260903112035 | 72 | 260 | 0.9 | 2.6 | 0.00 | 0.25 | 0.08 | 84 | 1010.5 |
| 20260903111032 | 72 | 260 | 2.6 | 3.5 | 0.00 | 0.25 | 0.08 | 84 | 1010.5 |
| 20260903110028 | 72 | 261 | 1.7 | 3.5 | 0.00 | 0.25 | 0.08 | 84 | 1010.2 |
| 20260903105027 | 72 | 262 | 0.9 | 1.7 | 0.00 | 0.25 | 0.08 | 84 | 1010.1 |
| 20260903104022 | 72 | 264 | 0.9 | 2.6 | 0.00 | 0.25 | 0.08 | 84 | 1010.1 |
| 20260903103041 | 72 | 264 | 0.9 | 2.6 | 0.00 | 0.25 | 0.08 | 84 | 1010.0 |
| 20260903102016 | 72 | 262 | 1.7 | 3.5 | 0.00 | 0.25 | 0.08 | 85 | 1010.1 |
| 20260903101033 | 72 | 262 | 2.6 | 5.2 | 0.00 | 0.25 | 0.08 | 85 | 1010.0 |
| 20260903100029 | 71 | 258 | 2.6 | 5.2 | 0.00 | 0.25 | 0.08 | 85 | 1009.9 |
| 20260903095047 | 71 | 262 | 2.6 | 5.2 | 0.00 | 0.25 | 0.08 | 85 | 1009.9 |
| 20260903094024 | 71 | 271 | 1.7 | 3.5 | 0.00 | 0.25 | 0.08 | 85 | 1010.0 |
| 20260903093020 | 71 | 358 | 1.7 | 3.5 | 0.00 | 0.25 | 0.08 | 84 | 1009.9 |
| 20260903092017 | 71 | 14 | 0.9 | 1.7 | 0.00 | 0.25 | 0.08 | 85 | 1009.7 |
| 20260903091034 | 72 | 5 | 0.9 | 2.6 | 0.00 | 0.25 | 0.08 | 84 | 1009.7 |
| 20260903090031 | 72 | 323 | 1.7 | 3.5 | 0.00 | 0.25 | 0.08 | 84 | 1009.6 |
| 20260903085027 | 72 | 326 | 1.7 | 3.5 | 0.00 | 0.25 | 0.08 | 84 | 1009.4 |
| 20260903084024 | 72 | 313 | 2.6 | 6.1 | 0.00 | 0.25 | 0.08 | 84 | 1009.5 |
| 20260903083021 | 72 | 353 | 1.7 | 3.5 | 0.00 | 0.25 | 0.08 | 84 | 1009.4 |
| 20260903082018 | 72 | 2 | 0.9 | 2.6 | 0.02 | 0.25 | 0.08 | 84 | 1009.3 |
| 20260903081034 | 72 | 310 | 2.6 | 6.1 | 0.02 | 0.25 | 0.08 | 84 | 1009.2 |
| 20260903080032 | 71 | 275 | 3.5 | 8.7 | 0.02 | 0.25 | 0.08 | 84 | 1009.5 |
| 20260903075028 | 71 | 288 | 3.5 | 7.0 | 0.02 | 0.25 | 0.08 | 84 | 1009.2 |
| 20260903074025 | 71 | 345 | 0.9 | 1.7 | 0.03 | 0.25 | 0.08 | 84 | 1009.0 |
| 20260903073022 | 71 | 38 | 1.7 | 3.5 | 0.04 | 0.25 | 0.08 | 84 | 1009.0 |
| 20260903072018 | 71 | 297 | 3.5 | 7.0 | 0.02 | 0.23 | 0.06 | 84 | 1009.4 |
| 20260903071015 | 72 | 295 | 3.5 | 8.7 | 0.02 | 0.23 | 0.06 | 84 | 1009.4 |
| 20260903070032 | 72 | 308 | 3.5 | 7.0 | 0.02 | 0.23 | 0.06 | 85 | 1009.7 |
| 20260903065029 | 72 | 297 | 4.3 | 7.0 | 0.02 | 0.23 | 0.06 | 85 | 1010.0 |
| 20260903064026 | 72 | 337 | 3.5 | 7.0 | 0.01 | 0.22 | 0.06 | 84 | 1009.6 |
| 20260903063023 | 72 | 1 | 0.9 | 2.6 | 0.00 | 0.22 | 0.05 | 84 | 1009.3 |